This demonstration page uses our WeatherBlox Daily Observations layout. Learn more.

Left ArrowRight Arrow

44.8408, -93.29828

Hourly Observations for May 10, 2021

Temp ( °F °C ) Dew Point ( °F °C ) Humidity (%) Winds ( mph kmh ) Pressure ( in mb ) Visibility ( mi km ) Precip ( " mm )
12:53 am 00:53 Mostly Clear 46 7.8 26 -3.3 46 46 ENE 13 20 30.13 1020 10 16 0.00 0.00
1:53 am 01:53 Mostly Cloudy 45 7.2 26 -3.3 48 48 ENE 9 15 30.14 1021 10 16 0.00 0.00
2:53 am 02:53 Mostly Cloudy 44 6.7 26 -3.3 49 49 NE 8 13 30.14 1021 10 16 0.00 0.00
3:53 am 03:53 Mostly Cloudy 42 5.6 26 -3.3 53 53 NNE 8 13 30.15 1021 10 16 0.00 0.00
4:53 am 04:53 Mostly Cloudy 42 5.6 26 -3.3 53 53 NNE 9 15 30.16 1022 10 16 0.00 0.00
5:53 am 05:53 Cloudy 43 6.1 27 -2.8 53 53 NE 9 15 30.19 1022 10 16 0.00 0.00
6:53 am 06:53 Cloudy 43 6.1 28 -2.2 56 56 NE 13 20 30.21 1023 10 16 0.00 0.00
7:53 am 07:53 Mostly Cloudy with Light Rain 42 5.6 34 1.1 73 73 E 7 11 30.23 1024 10 16 0.00 0.00
8:53 am 08:53 Mostly Cloudy 44 6.7 31 -0.6 60 60 NE 9 15 30.23 1024 10 16 0.00 0.00
9:53 am 09:53 Mostly Sunny 48 8.9 30 -1.1 50 50 VRB 3 6 30.23 1024 10 16 0.00 0.00
10:53 am 10:53 Partly Cloudy 48 8.9 24 -4.4 39 39 NNE 9 15 30.23 1024 10 16 0.00 0.00
11:53 am 11:53 Partly Cloudy 51 10.6 26 -3.3 38 38 ENE 13 20 30.24 1024 10 16 0.00 0.00
12:53 pm 12:53 Mostly Cloudy 51 10.6 24 -4.4 35 35 NE 12 19 30.24 1024 10 16 0.00 0.00
1:53 pm 13:53 Mostly Cloudy 53 11.7 23 -5 31 31 NNE 9 15 30.23 1024 10 16 0.00 0.00
2:53 pm 14:53 Mostly Cloudy 54 12.2 23 -5 30 30 N 15 24 30.23 1024 10 16 0.00 0.00
3:53 pm 15:53 Mostly Cloudy 55 12.8 22 -5.6 28 28 NE 13 20 30.23 1024 10 16 0.00 0.00
4:53 pm 16:53 Mostly Cloudy 54 12.2 22 -5.6 29 29 NNE 9 15 30.23 1024 10 16 0.00 0.00
5:53 pm 17:53 Mostly Cloudy 52 11.1 20 -6.7 28 28 NNE 13 20 30.24 1024 10 16 0.00 0.00
6:53 pm 18:53 Mostly Cloudy 51 10.6 20 -6.7 29 29 NNE 10 17 30.25 1024 10 16 0.00 0.00
7:53 pm 19:53 Partly Cloudy 49 9.4 22 -5.6 35 35 N 7 11 30.26 1025 10 16 0.00 0.00
8:53 pm 20:53 Mostly Clear 46 7.8 23 -5 40 40 N 5 7 30.28 1025 10 16 0.00 0.00
9:53 pm 21:53 Mostly Clear 46 7.8 23 -5 40 40 N 3 6 30.29 1026 10 16 0.00 0.00
10:53 pm 22:53 Clear 43 6.1 29 -1.7 58 58 NNW 5 7 30.31 1027 10 16 0.00 0.00
11:53 pm 23:53 Clear 40 4.4 29 -1.7 65 65 NW 7 11 30.32 1027 10 16 0.00 0.00

Powered by AerisWeather